Find Local Weather

World > North America > United States > Wisconsin

Mellen, Wisconsin Regional Weather

Lat: 46.32N, Lon: 90.66W
Wx Zone: WIZ003
Feedback
Expires:201805232100;;420295
ASUS43 KMKX 232021
RWRWI 

WISCONSIN REGIONAL WEATHER ROUNDUP
NATIONAL WEATHER SERVICE MILWAUKEE/SULLIVAN WI
300 PM CDT WED MAY 23 2018

NOTE: "FAIR" INDICATES FEW OR NO CLOUDS BELOW 12,000 FEET WITH NO
SIGNIFICANT WEATHER AND/OR OBSTRUCTIONS TO VISIBILITY.


WIZ003>005-009-010-017-018-232100-
NORTH CENTRAL WISCONSIN
  
CITY           SKY/WX    TMP DP  RH WIND       PRES   REMARKS
MANITOWISH WTR PTSUNNY   80  54  40 SW10      30.13F HX  80           
ARBOR VITAE    FAIR      81  53  37 W7        30.13F HX  80           
WOODRUFF       FAIR      81  53  37 W7        30.13F HX  80           
RHINELANDER    FAIR      83  53  35 W6        30.15S HX  82           
EAGLE RIVER    PTSUNNY   81  47  29 W5        30.13F HX  80           
LAND O LAKES   PTSUNNY   80  45  28 W6        30.15S                  
PHILLIPS       FAIR      78  58  50 W7        30.13F                  
TOMAHAWK       FAIR      78  53  42 SW3       30.15F                  
MEDFORD        CLOUDY    75  58  55 SW8       30.15F                  
MERRILL        FAIR      79  57  46 SW8       30.15S HX  80           
$$
 

SKY/WX - Weather  TMP - Temperature  DP - Dewpoint  RH - Relative Humidity
WIND - Wind Direction/Speed PRES - Barometric Pressure